When you browse on this site, cookies collect data to enhance your experience and personalize the content and advertising you see.
Visit our Privacy Policy to learn more. By continuing to use the site, you agree to this use of cookies and data.
  • In Romania
  • List of Countries
  • For 7 days
  • Water Temperature
  • Satellite Maps
  • Weather Map
  • Weather Widgets
  • user-avatar
    Login

    Hourly Weather Arroyomolinos

    Today, 16 July, Tuesday

    Time Temperature Precipitation Wind Pressure Humidity
    00:00 +26°C° 0 mm 4 mps 703 mmHg 30%
    01:00 +25°C° 0 mm 4 mps 703 mmHg 31%
    02:00 +23°C° 0 mm 4 mps 703 mmHg 33%
    03:00 +23°C° 0 mm 4 mps 703 mmHg 34%
    04:00 +23°C° 0 mm 4 mps 703 mmHg 33%
    05:00 +22°C° 0 mm 4 mps 703 mmHg 32%
    06:00 +22°C° 0 mm 4 mps 703 mmHg 31%
    07:00 +25°C° 0 mm 4 mps 703 mmHg 31%
    08:00 +27°C° 0 mm 4 mps 703 mmHg 32%
    09:00 +29°C° 0 mm 4 mps 704 mmHg 32%
    10:00 +31°C° 0 mm 3 mps 704 mmHg 29%
    11:00 +32°C° 0 mm 2 mps 703 mmHg 26%
    12:00 +35°C° 0 mm 2 mps 703 mmHg 23%
    13:00 +36°C° 0 mm 2 mps 703 mmHg 20%
    14:00 +36°C° 0 mm 1 mps 702 mmHg 18%
    15:00 +37°C° 0 mm 1 mps 702 mmHg 16%
    16:00 +38°C° 0 mm 2 mps 702 mmHg 16%
    17:00 +38°C° 0 mm 2 mps 702 mmHg 15%
    18:00 +38°C° 0 mm 3 mps 702 mmHg 14%
    19:00 +36°C° 0 mm 3 mps 702 mmHg 17%
    20:00 +34°C° 0 mm 3 mps 702 mmHg 21%
    21:00 +30°C° 0 mm 3 mps 702 mmHg 24%
    22:00 +29°C° 0 mm 3 mps 702 mmHg 28%
    23:00 +28°C° 0 mm 4 mps 702 mmHg 33%

    Tomorrow, 17 July, Wednesday

    Time Temperature Precipitation Wind Pressure Humidity
    00:00 +27°C° 0 mm 4 mps 702 mmHg 37%
    01:00 +26°C° 0 mm 4 mps 702 mmHg 42%
    02:00 +25°C° 0 mm 4 mps 702 mmHg 47%
    03:00 +23°C° 0 mm 4 mps 702 mmHg 51%
    04:00 +23°C° 0 mm 4 mps 702 mmHg 53%
    05:00 +24°C° 0 mm 3 mps 702 mmHg 54%
    06:00 +22°C° 0 mm 3 mps 702 mmHg 55%
    07:00 +25°C° 0 mm 2 mps 703 mmHg 49%
    08:00 +27°C° 0 mm 2 mps 703 mmHg 43%
    09:00 +29°C° 0 mm 2 mps 703 mmHg 38%
    10:00 +30°C° 0 mm 2 mps 703 mmHg 33%
    11:00 +32°C° 0 mm 2 mps 703 mmHg 28%
    12:00 +34°C° 0 mm 3 mps 703 mmHg 23%
    13:00 +35°C° 0 mm 3 mps 702 mmHg 21%
    14:00 +36°C° 0 mm 3 mps 702 mmHg 19%
    15:00 +37°C° 0 mm 4 mps 702 mmHg 16%
    16:00 +37°C° 0 mm 4 mps 702 mmHg 15%
    17:00 +37°C° 0 mm 3 mps 702 mmHg 14%
    18:00 +36°C° 0 mm 3 mps 701 mmHg 14%
    19:00 +35°C° 0 mm 3 mps 702 mmHg 17%
    20:00 +33°C° 0 mm 3 mps 702 mmHg 20%
    21:00 +30°C° 0 mm 3 mps 702 mmHg 23%
    22:00 +29°C° 0 mm 4 mps 702 mmHg 30%
    23:00 +28°C° 0 mm 4 mps 702 mmHg 37%

    Day after tomorrow, 18 July, Thursday

    Time Temperature Precipitation Wind Pressure Humidity
    00:00 +27°C° 0 mm 4 mps 702 mmHg 44%
    01:00 +26°C° 0 mm 4 mps 702 mmHg 47%
    02:00 +25°C° 0 mm 4 mps 702 mmHg 49%
    03:00 +25°C° 0 mm 4 mps 702 mmHg 52%
    04:00 +25°C° 0 mm 4 mps 702 mmHg 52%
    05:00 +23°C° 0 mm 4 mps 702 mmHg 53%
    06:00 +24°C° 0 mm 3 mps 702 mmHg 54%
    07:00 +26°C° 0 mm 3 mps 703 mmHg 48%
    08:00 +28°C° 0 mm 3 mps 703 mmHg 42%
    09:00 +29°C° 0 mm 3 mps 703 mmHg 36%
    10:00 +31°C° 0 mm 2 mps 703 mmHg 32%
    11:00 +33°C° 0 mm 1 mps 703 mmHg 28%
    12:00 +34°C° 0 mm 1 mps 703 mmHg 24%
    13:00 +36°C° 0 mm 2 mps 702 mmHg 21%
    14:00 +37°C° 0 mm 3 mps 702 mmHg 19%
    15:00 +38°C° 0 mm 3 mps 702 mmHg 16%
    16:00 +38°C° 0 mm 3 mps 702 mmHg 17%
    17:00 +37°C° 0 mm 3 mps 702 mmHg 17%
    18:00 +37°C° 0 mm 3 mps 701 mmHg 17%
    19:00 +35°C° 0 mm 3 mps 702 mmHg 22%
    20:00 +33°C° 0 mm 3 mps 702 mmHg 26%
    21:00 +30°C° 0 mm 2 mps 702 mmHg 30%
    22:00 +29°C° 0 mm 3 mps 702 mmHg 33%
    23:00 +28°C° 0 mm 4 mps 703 mmHg 37%

    19 July, Friday

    Time Temperature Precipitation Wind Pressure Humidity
    00:00 +27°C° 0 mm 6 mps 703 mmHg 40%
    01:00 +27°C° 0 mm 5 mps 702 mmHg 43%
    02:00 +26°C° 0 mm 5 mps 702 mmHg 45%
    03:00 +25°C° 0 mm 5 mps 702 mmHg 48%
    04:00 +25°C° 0 mm 4 mps 702 mmHg 49%
    05:00 +25°C° 0 mm 4 mps 702 mmHg 50%
    06:00 +25°C° 0 mm 4 mps 703 mmHg 52%
    07:00 +26°C° 0 mm 4 mps 703 mmHg 46%
    08:00 +28°C° 0 mm 4 mps 703 mmHg 41%
    09:00 +30°C° 0 mm 4 mps 703 mmHg 36%
    10:00 +33°C° 0 mm 3 mps 703 mmHg 31%
    11:00 +34°C° 0 mm 2 mps 703 mmHg 27%
    12:00 +35°C° 0 mm 1 mps 703 mmHg 23%
    13:00 +36°C° 0 mm 1 mps 702 mmHg 20%
    14:00 +38°C° 0 mm 2 mps 702 mmHg 18%
    15:00 +39°C° 0 mm 2 mps 701 mmHg 15%
    16:00 +39°C° 0 mm 2 mps 701 mmHg 15%
    17:00 +39°C° 0 mm 2 mps 701 mmHg 15%
    18:00 +39°C° 0 mm 2 mps 701 mmHg 15%
    19:00 +37°C° 0 mm 3 mps 701 mmHg 18%
    20:00 +35°C° 0 mm 4 mps 701 mmHg 22%
    21:00 +32°C° 0 mm 4 mps 701 mmHg 25%
    22:00 +30°C° 0 mm 4 mps 701 mmHg 28%
    23:00 +29°C° 0 mm 4 mps 702 mmHg 30%

    20 July, Saturday

    Time Temperature Precipitation Wind Pressure Humidity
    00:00 +28°C° 0 mm 3 mps 702 mmHg 33%
    01:00 +27°C° 0 mm 4 mps 702 mmHg 36%
    02:00 +26°C° 0 mm 4 mps 702 mmHg 40%
    03:00 +26°C° 0 mm 5 mps 702 mmHg 43%
    04:00 +25°C° 0 mm 5 mps 702 mmHg 44%
    05:00 +25°C° 0 mm 5 mps 702 mmHg 44%
    06:00 +25°C° 0 mm 5 mps 702 mmHg 45%
    07:00 +27°C° 0 mm 4 mps 702 mmHg 40%
    08:00 +29°C° 0 mm 4 mps 703 mmHg 35%
    09:00 +30°C° 0 mm 4 mps 703 mmHg 30%
    10:00 +33°C° 0 mm 3 mps 703 mmHg 27%
    11:00 +35°C° 0 mm 3 mps 703 mmHg 23%
    12:00 +37°C° 0 mm 2 mps 703 mmHg 19%
    13:00 +38°C° 0 mm 2 mps 703 mmHg 18%
    14:00 +40°C° 0 mm 2 mps 703 mmHg 16%
    15:00 +41°C° 0 mm 2 mps 702 mmHg 14%
    16:00 +40°C° 0 mm 2 mps 702 mmHg 14%
    17:00 +40°C° 0 mm 3 mps 702 mmHg 14%
    18:00 +40°C° 0 mm 3 mps 702 mmHg 15%
    19:00 +38°C° 0 mm 4 mps 703 mmHg 20%
    20:00 +36°C° 0 mm 6 mps 703 mmHg 26%
    21:00 +33°C° 0 mm 7 mps 703 mmHg 32%
    22:00 +32°C° 0 mm 6 mps 703 mmHg 36%
    23:00 +30°C° 0 mm 5 mps 703 mmHg 41%

    21 July, Sunday

    Time Temperature Precipitation Wind Pressure Humidity
    00:00 +29°C° 0 mm 5 mps 704 mmHg 45%
    01:00 +28°C° 0.1 mm 5 mps 703 mmHg 47%
    02:00 +27°C° 0.1 mm 5 mps 703 mmHg 49%
    03:00 +27°C° 0.1 mm 5 mps 703 mmHg 51%
    04:00 +26°C° 0.1 mm 5 mps 703 mmHg 53%
    05:00 +26°C° 0.1 mm 4 mps 703 mmHg 54%
    06:00 +25°C° 0.1 mm 4 mps 704 mmHg 55%
    07:00 +27°C° 0 mm 4 mps 704 mmHg 49%
    08:00 +29°C° 0 mm 3 mps 704 mmHg 43%
    09:00 +30°C° 0 mm 3 mps 705 mmHg 38%
    10:00 +33°C° 0 mm 3 mps 705 mmHg 33%
    11:00 +35°C° 0 mm 3 mps 705 mmHg 28%
    12:00 +37°C° 0 mm 2 mps 705 mmHg 23%
    13:00 +38°C° 0 mm 3 mps 704 mmHg 21%
    14:00 +39°C° 0 mm 3 mps 704 mmHg 18%
    15:00 +41°C° 0 mm 4 mps 704 mmHg 16%
    16:00 +41°C° 0 mm 4 mps 704 mmHg 16%
    17:00 +41°C° 0 mm 4 mps 704 mmHg 15%
    18:00 +40°C° 0 mm 3 mps 704 mmHg 15%
    19:00 +38°C° 0 mm 3 mps 704 mmHg 17%
    20:00 +36°C° 0 mm 3 mps 704 mmHg 19%
    21:00 +34°C° 0 mm 3 mps 704 mmHg 21%
    22:00 +31°C° 0 mm 3 mps 704 mmHg 30%
    23:00 +30°C° 0 mm 3 mps 704 mmHg 38%
    Show more